Tiempo cada hora Cuilapa

Hoy, 28 Octubre, Miércoles

Tiempo Temperatura Precipitaciones Viento Presión Humedad
00:00 +19°C° 0 mm 0 mps 684 mmHg 95%
01:00 +21°C° 0 mm 1 mps 684 mmHg 94%
02:00 +21°C° 0 mm 1 mps 684 mmHg 93%
03:00 +21°C° 0 mm 1 mps 683 mmHg 92%
04:00 +21°C° 0 mm 1 mps 684 mmHg 91%
05:00 +21°C° 0 mm 1 mps 684 mmHg 91%
06:00 +21°C° 0 mm 1 mps 684 mmHg 90%
07:00 +23°C° 0 mm 1 mps 685 mmHg 84%
08:00 +25°C° 0 mm 1 mps 685 mmHg 78%
09:00 +27°C° 0 mm 1 mps 686 mmHg 72%
10:00 +28°C° 0.3 mm 1 mps 686 mmHg 75%
11:00 +28°C° 0.3 mm 2 mps 685 mmHg 77%
12:00 +28°C° 0.3 mm 2 mps 685 mmHg 79%
13:00 +27°C° 1.7 mm 2 mps 684 mmHg 84%
14:00 +26°C° 1.7 mm 1 mps 683 mmHg 90%
15:00 +25°C° 1.7 mm 1 mps 683 mmHg 95%
16:00 +24°C° 0.6 mm 1 mps 683 mmHg 96%
17:00 +22°C° 0.6 mm 0 mps 683 mmHg 97%
18:00 +21°C° 0.6 mm 0 mps 684 mmHg 98%
19:00 +21°C° 1.1 mm 0 mps 684 mmHg 97%
20:00 +21°C° 1.1 mm 0 mps 685 mmHg 97%
21:00 +22°C° 1.1 mm 1 mps 685 mmHg 97%
22:00 +22°C° 0.3 mm 1 mps 685 mmHg 96%
23:00 +22°C° 0.3 mm 1 mps 685 mmHg 95%

Mañana, 29 Octubre, Jueves

Tiempo Temperatura Precipitaciones Viento Presión Humedad
00:00 +22°C° 0.3 mm 1 mps 685 mmHg 94%
01:00 +22°C° 0.4 mm 1 mps 684 mmHg 94%
02:00 +22°C° 0.4 mm 1 mps 684 mmHg 93%
03:00 +21°C° 0.4 mm 1 mps 684 mmHg 93%
04:00 +21°C° 0.1 mm 1 mps 684 mmHg 93%
05:00 +21°C° 0.1 mm 1 mps 684 mmHg 92%
06:00 +21°C° 0.1 mm 1 mps 684 mmHg 92%
07:00 +22°C° 0 mm 1 mps 685 mmHg 91%
08:00 +23°C° 0 mm 1 mps 685 mmHg 90%
09:00 +23°C° 0 mm 1 mps 686 mmHg 88%
10:00 +25°C° 0.2 mm 1 mps 686 mmHg 84%
11:00 +26°C° 0.2 mm 1 mps 686 mmHg 80%
12:00 +27°C° 0.2 mm 1 mps 685 mmHg 76%
13:00 +26°C° 1.1 mm 1 mps 685 mmHg 80%
14:00 +26°C° 1.1 mm 1 mps 684 mmHg 84%
15:00 +25°C° 1.1 mm 1 mps 684 mmHg 88%
16:00 +24°C° 1.4 mm 1 mps 684 mmHg 90%
17:00 +21°C° 1.4 mm 0 mps 684 mmHg 93%
18:00 +20°C° 1.4 mm 0 mps 684 mmHg 95%
19:00 +20°C° 0.7 mm 0 mps 685 mmHg 95%
20:00 +22°C° 0.7 mm 1 mps 685 mmHg 95%
21:00 +21°C° 0.7 mm 1 mps 686 mmHg 95%
22:00 +21°C° 0.3 mm 1 mps 685 mmHg 95%
23:00 +21°C° 0.3 mm 1 mps 685 mmHg 95%

Pasado mañana, 30 Octubre, Viernes

Tiempo Temperatura Precipitaciones Viento Presión Humedad
00:00 +20°C° 0.3 mm 2 mps 685 mmHg 95%
01:00 +20°C° 0 mm 2 mps 685 mmHg 94%
02:00 +20°C° 0 mm 2 mps 685 mmHg 94%
03:00 +19°C° 0 mm 2 mps 684 mmHg 94%
04:00 +20°C° 0 mm 2 mps 684 mmHg 93%
05:00 +20°C° 0 mm 2 mps 685 mmHg 92%
06:00 +20°C° 0 mm 2 mps 685 mmHg 92%
07:00 +21°C° 0 mm 2 mps 686 mmHg 86%
08:00 +24°C° 0 mm 1 mps 686 mmHg 81%
09:00 +26°C° 0 mm 1 mps 687 mmHg 75%
10:00 +27°C° 0.1 mm 1 mps 687 mmHg 72%
11:00 +28°C° 0.1 mm 1 mps 687 mmHg 68%
12:00 +29°C° 0.1 mm 2 mps 687 mmHg 64%
13:00 +28°C° 1.1 mm 1 mps 686 mmHg 71%
14:00 +27°C° 1.1 mm 1 mps 685 mmHg 78%
15:00 +26°C° 1.1 mm 1 mps 684 mmHg 85%
16:00 +25°C° 0.5 mm 1 mps 685 mmHg 89%
17:00 +23°C° 0.5 mm 1 mps 685 mmHg 92%
18:00 +20°C° 0.5 mm 0 mps 685 mmHg 95%
19:00 +22°C° 0.2 mm 1 mps 686 mmHg 95%
20:00 +21°C° 0.2 mm 1 mps 686 mmHg 95%
21:00 +20°C° 0.2 mm 2 mps 687 mmHg 94%
22:00 +20°C° 0 mm 2 mps 686 mmHg 94%
23:00 +19°C° 0 mm 2 mps 686 mmHg 93%

31 Octubre, Sábado

Tiempo Temperatura Precipitaciones Viento Presión Humedad
00:00 +19°C° 0 mm 2 mps 686 mmHg 93%
01:00 +19°C° 0 mm 2 mps 686 mmHg 92%
02:00 +19°C° 0 mm 2 mps 686 mmHg 92%
03:00 +19°C° 0 mm 2 mps 685 mmHg 92%
04:00 +19°C° 0 mm 2 mps 686 mmHg 91%
05:00 +19°C° 0 mm 2 mps 686 mmHg 91%
06:00 +19°C° 0 mm 2 mps 686 mmHg 90%
07:00 +21°C° 0 mm 2 mps 687 mmHg 85%
08:00 +24°C° 0 mm 2 mps 687 mmHg 80%
09:00 +26°C° 0 mm 1 mps 688 mmHg 74%
10:00 +26°C° 0.2 mm 1 mps 688 mmHg 73%
11:00 +27°C° 0.2 mm 1 mps 687 mmHg 72%
12:00 +28°C° 0.2 mm 1 mps 687 mmHg 71%
13:00 +28°C° 1 mm 1 mps 687 mmHg 75%
14:00 +27°C° 1 mm 1 mps 686 mmHg 79%
15:00 +26°C° 1 mm 1 mps 685 mmHg 84%
16:00 +25°C° 0.7 mm 1 mps 685 mmHg 88%
17:00 +24°C° 0.7 mm 1 mps 686 mmHg 92%
18:00 +22°C° 0.7 mm 1 mps 686 mmHg 96%
19:00 +22°C° 0.6 mm 1 mps 686 mmHg 96%
20:00 +21°C° 0.6 mm 1 mps 687 mmHg 95%
21:00 +20°C° 0.6 mm 2 mps 687 mmHg 95%
22:00 +20°C° 0 mm 2 mps 687 mmHg 94%
23:00 +20°C° 0 mm 2 mps 687 mmHg 93%

1 Noviembre, Domingo

Tiempo Temperatura Precipitaciones Viento Presión Humedad
00:00 +20°C° 0 mm 2 mps 687 mmHg 93%
01:00 +20°C° 0 mm 2 mps 686 mmHg 92%
02:00 +19°C° 0 mm 2 mps 686 mmHg 92%
03:00 +19°C° 0 mm 2 mps 686 mmHg 91%
04:00 +19°C° 0 mm 2 mps 686 mmHg 91%
05:00 +19°C° 0 mm 2 mps 686 mmHg 90%
06:00 +19°C° 0 mm 2 mps 686 mmHg 90%
07:00 +21°C° 0 mm 2 mps 687 mmHg 85%
08:00 +23°C° 0 mm 2 mps 687 mmHg 80%
09:00 +25°C° 0 mm 2 mps 688 mmHg 74%
10:00 +26°C° 0 mm 2 mps 688 mmHg 71%
11:00 +28°C° 0 mm 2 mps 688 mmHg 67%
12:00 +29°C° 0 mm 1 mps 687 mmHg 63%
13:00 +28°C° 1 mm 1 mps 687 mmHg 70%
14:00 +27°C° 1 mm 1 mps 686 mmHg 78%
15:00 +26°C° 1 mm 2 mps 685 mmHg 85%
16:00 +25°C° 0.9 mm 1 mps 686 mmHg 88%
17:00 +24°C° 0.9 mm 1 mps 686 mmHg 91%
18:00 +22°C° 0.9 mm 1 mps 686 mmHg 94%
19:00 +22°C° 0.2 mm 1 mps 686 mmHg 94%
20:00 +20°C° 0.2 mm 2 mps 687 mmHg 94%
21:00 +20°C° 0.2 mm 2 mps 687 mmHg 94%
22:00 +20°C° 0 mm 2 mps 687 mmHg 93%
23:00 +19°C° 0 mm 2 mps 687 mmHg 92%

2 Noviembre, Lunes

Tiempo Temperatura Precipitaciones Viento Presión Humedad
00:00 +19°C° 0 mm 2 mps 687 mmHg 91%
01:00 +19°C° 0 mm 2 mps 686 mmHg 90%
02:00 +19°C° 0 mm 2 mps 686 mmHg 90%
03:00 +19°C° 0 mm 2 mps 685 mmHg 89%
04:00 +19°C° 0 mm 2 mps 686 mmHg 89%
05:00 +18°C° 0 mm 2 mps 686 mmHg 89%
06:00 +18°C° 0 mm 3 mps 686 mmHg 89%
07:00 +20°C° 0 mm 2 mps 686 mmHg 83%
08:00 +23°C° 0 mm 2 mps 687 mmHg 77%
09:00 +25°C° 0 mm 2 mps 688 mmHg 71%
10:00 +26°C° 0 mm 2 mps 688 mmHg 67%
11:00 +27°C° 0 mm 2 mps 688 mmHg 62%
12:00 +29°C° 0 mm 2 mps 687 mmHg 58%
13:00 +28°C° 0 mm 2 mps 687 mmHg 60%
14:00 +28°C° 0 mm 2 mps 686 mmHg 62%
15:00 +28°C° 0 mm 2 mps 685 mmHg 65%
16:00 +26°C° 0.1 mm 2 mps 685 mmHg 72%
17:00 +24°C° 0.1 mm 2 mps 685 mmHg 78%
18:00 +21°C° 0.1 mm 2 mps 685 mmHg 85%
19:00 +20°C° 0 mm 2 mps 686 mmHg 86%
20:00 +20°C° 0 mm 2 mps 686 mmHg 86%
21:00 +19°C° 0 mm 2 mps 686 mmHg 86%
22:00 +19°C° 0 mm 2 mps 686 mmHg 86%
23:00 +19°C° 0 mm 2 mps 686 mmHg 86%
Mostrar más

Necesitamos Su Consentimiento

Meteoprog y nuestros Proveedores de Servicios pueden almacenar y acceder a sus datos personales como cookies, identificadores de dispositivo u otras tecnologías similares de su dispositivo y procesar dichos datos para personalizar contenido y anuncios, además de ofrecer funciones de redes sociales y analizar el tráfico.

  • Almacenar y/o acceder a información en su dispositivo

    Se puede almacenar o acceder a cookies, identificadores de dispositivo u otra información de su dispositivo para los fines anteriormente indicados.

  • Anuncios y contenido personalizados, medición de anuncios y contenido, percepciones del público, y desarrollo de productos

    Los anuncios y el contenido pueden personalizarse en base a su perfil. Se pueden añadir más datos para personalizar mejor los anuncios y contenidos. Se puede medir el rendimiento de los anuncios y contenidos. Se puede obtener la percepción sobre el público que ha visto los anuncios y contenidos. Dichos datos pueden usarse para desarrollar o mejorar la experiencia del usuario, sistemas y software.

Al hacer clic en ‘Estoy De Acuerdo’ usted permitirá el uso de las cookies, identificadores de dispositivo, balizas web u otras tecnologías similares indicadas. Su configuración puede cambiarse desde el navegador de su dispositivo.

Para ciertos fines, los intereses legítimos pueden ser considerados por encima del consentimiento. Puede leer más sobre ello en nuestra Política de Privacidad y Cookies.